Theta_e
320 320 320 320 320 320 320 320 322 325 327 328 327 326 326 325 323 310 305 307 309 315 309 302 302 302 303 302 303 302 294 292 292 292 294 297 295 298 300 298 298 300 299 299 304
319 319 318 318 318 319 320 320 320 320 323 327 328 327 326 325 313 307 310 314 313 313 302 299 297 300 298 299 301 298 293 295 295 295 294 295 295 297 296 297 297 298 299 299 301
318 318 318 317 317 318 317 319 318 320 320 324 327 327 326 318 307 302 315 312 314 307 303 302 300 298 295 298 297 296 293 295 294 295 295 294 294 297 295 295 298 298 300 299 299
316 317 317 317 317 317 317 317 318 317 319 322 324 326 323 310 298 300 312 310 315 306 302 299 298 295 294 293 296 292 295 295 295 294 294 294 296 295 296 298 299 300 300 300 299
315 315 316 316 316 316 317 317 318 319 318 319 322 322 311 306 307 303 307 307 303 300 299 298 296 295 293 293 293 292 294 294 296 294 294 295 294 294 295 299 300 298 298 299 299
315 315 315 316 315 315 316 317 318 319 318 317 320 319 305 301 305 301 301 300 300 300 299 299 296 297 294 292 292 292 292 293 295 296 296 293 296 294 299 298 298 297 298 299 299
315 314 315 315 315 315 315 317 318 319 318 317 319 314 306 305 303 300 299 299 299 300 299 299 299 297 296 293 295 294 292 297 298 297 296 295 294 293 300 297 297 297 297 297 298
313 314 314 315 315 314 315 316 317 318 319 317 318 307 301 309 305 300 300 300 301 302 301 302 301 298 295 296 295 293 293 291 294 294 293 293 290 296 295 295 295 296 296 296 296
313 312 314 315 315 314 314 316 317 320 318 318 309 305 298 307 297 301 300 298 299 301 301 300 300 296 295 293 292 292 289 289 291 293 291 291 289 293 294 293 294 295 295 295 295
312 313 315 315 314 314 315 315 316 316 312 310 304 299 303 299 297 297 300 300 298 298 296 296 295 292 292 292 286 287 287 288 288 290 289 289 289 293 295 293 293 294 295 295 292
314 313 313 313 315 313 312 308 305 302 303 301 301 300 300 298 299 296 298 297 298 296 291 293 290 289 292 292 291 288 287 287 290 290 287 287 287 289 292 291 290 291 293 289 288
313 313 311 311 313 312 309 303 301 301 294 301 300 300 302 301 297 295 298 293 291 289 291 289 288 291 290 289 288 288 286 286 288 286 284 286 285 289 289 288 287 288 291 287 286
310 309 311 311 312 310 303 302 306 303 295 296 301 300 301 300 298 295 295 292 290 289 289 288 288 289 287 286 285 286 285 285 283 284 286 284 287 284 287 286 285 286 285 284 285
308 309 308 309 305 306 300 304 305 305 290 289 296 293 291 293 289 294 295 292 289 288 287 287 288 285 285 284 286 282 286 283 281 281 281 284 281 286 286 284 285 285 286 284 283
308 308 307 307 302 301 304 303 303 302 275 291 291 293 291 290 293 292 294 292 291 289 288 287 285 284 283 285 286 283 284 282 281 281 280 282 279 286 285 283 285 286 286 284 284
307 308 307 303 302 304 306 305 301 285 274 288 288 288 288 291 294 291 291 293 291 288 288 288 289 287 287 284 284 284 283 282 283 281 277 279 280 285 284 285 284 285 283 283 282
306 306 304 304 297 304 305 300 284 278 287 285 286 290 292 290 291 292 288 288 287 283 283 286 286 285 285 283 284 284 282 281 278 277 279 278 278 284 284 284 285 285 282 282 282
305 305 303 301 305 302 301 289 278 282 283 290 290 290 287 288 288 289 288 286 286 285 284 282 280 283 285 284 284 282 282 281 275 277 279 278 277 284 284 284 282 280 279 281 282
305 302 300 301 305 301 293 280 281 284 287 288 286 284 285 287 288 287 287 286 286 286 283 281 282 283 283 283 283 281 279 282 277 274 275 281 281 281 282 283 282 283 281 279 280
299 295 296 303 304 298 287 281 285 287 291 289 283 285 283 285 285 285 285 285 284 286 288 283 279 283 282 283 282 282 284 278 279 274 273 278 277 281 280 281 282 282 278 277 279
297 290 298 302 303 291 282 283 286 290 292 288 285 284 284 284 284 284 284 284 287 285 287 284 281 281 281 280 281 279 279 280 280 278 275 274 280 281 282 281 280 279 277 276 277
292 285 297 299 288 288 284 287 290 290 292 290 289 287 285 285 284 284 283 285 289 288 283 284 281 279 281 281 282 281 281 281 278 275 276 274 278 280 280 280 277 277 277 277 278
289 288 299 297 283 284 287 288 289 288 288 288 287 289 289 285 282 285 285 287 287 286 284 284 279 278 276 279 281 279 281 281 279 279 276 275 280 280 280 280 277 275 277 278 279
289 284 291 291 287 287 285 285 285 290 289 290 288 289 287 284 286 284 284 285 288 286 288 286 279 278 278 279 281 277 279 281 279 277 278 278 281 279 280 281 278 279 277 277 280
290 286 287 282 286 286 286 284 284 284 288 289 286 286 285 281 283 283 285 284 285 287 286 284 277 277 279 281 281 280 279 278 277 280 276 279 278 280 281 280 277 274 277 279 280
287 287 288 286 286 285 286 284 284 284 286 285 284 287 286 283 283 280 283 283 282 283 282 281 279 277 276 280 280 278 280 280 279 280 280 280 279 286 279 276 277 278 278 279 279
295 293 286 286 285 283 284 285 285 287 287 288 288 286 284 285 287 288 288 286 285 282 280 280 279 276 274 278 277 276 278 280 281 281 281 277 282 280 277 276 278 278 278 278 279
Wind_Speed
19 19 19 19 19 18 18 18 20 19 18 12 11 11 10 13 15 5 5 3 2 2 2 5 4 6 4 4 2 2 6 8 6 6 1 3 3 3 0 4 3 3 2 5 13
20 19 20 21 20 19 18 19 18 19 20 17 15 11 10 10 12 9 4 4 2 2 3 6 6 8 5 5 4 6 5 6 2 3 2 2 4 3 5 7 7 7 6 5 16
19 20 21 20 21 21 20 18 19 18 18 18 16 11 9 11 10 2 6 4 5 4 1 1 4 4 5 4 6 5 6 3 3 5 3 4 5 4 6 12 11 9 8 12 16
19 19 19 20 21 21 20 21 18 18 17 17 16 9 9 4 7 3 5 3 6 5 5 4 4 5 5 6 5 6 8 7 1 1 2 5 3 7 12 15 3 5 2 13 17
18 19 19 19 20 21 21 20 19 17 16 15 14 6 4 6 8 5 2 3 5 4 3 4 5 3 6 3 5 10 6 4 7 5 7 6 13 12 18 12 9 4 7 11 13
18 18 19 19 20 20 21 21 20 17 13 12 11 4 4 13 4 3 3 3 3 4 3 3 3 2 2 4 7 1 6 9 8 11 8 8 15 3 8 1 9 10 11 10 12
19 19 19 20 20 21 21 21 21 20 16 10 8 3 6 14 1 3 1 2 2 2 2 2 2 5 4 4 2 2 8 10 12 7 6 3 11 14 12 4 8 9 8 9 10
20 19 20 20 21 22 22 23 21 18 16 8 3 3 7 1 2 4 5 3 4 3 3 4 1 1 4 1 3 5 4 6 5 5 3 5 10 4 2 5 7 7 7 8 11
21 21 20 20 21 23 25 24 20 12 5 5 5 3 6 1 3 3 5 4 5 6 5 5 1 1 4 7 6 6 7 8 3 4 3 10 9 2 3 5 8 7 8 8 9
20 19 20 19 20 22 25 23 7 3 4 3 1 4 6 3 4 4 2 6 2 7 5 3 4 6 6 8 5 4 6 6 9 4 6 11 19 18 16 13 14 12 10 8 4
19 18 20 21 20 21 17 6 4 6 6 8 4 2 2 5 5 3 3 6 5 4 6 4 8 10 8 10 4 3 6 11 10 3 7 15 17 17 15 13 13 13 9 4 4
22 20 18 20 20 19 7 6 4 4 10 11 14 10 5 2 4 7 6 7 7 9 5 5 10 3 2 4 7 8 9 11 9 1 5 12 20 16 6 2 4 6 6 4 4
18 18 18 19 19 6 2 6 5 2 7 5 7 8 6 9 6 9 10 4 7 7 9 10 4 6 3 5 7 9 12 8 8 6 8 11 12 1 2 3 4 5 6 4 1
24 21 17 14 13 4 5 4 2 3 6 6 8 7 7 6 5 3 6 3 5 6 4 7 1 4 4 5 8 7 3 4 3 6 5 4 7 4 2 2 3 5 6 1 2
23 20 10 5 6 7 3 1 2 3 7 9 6 4 6 6 9 4 2 4 7 5 4 3 3 4 6 3 8 2 2 2 3 5 6 6 5 2 3 4 6 7 4 1 3
22 18 10 3 3 10 2 1 3 5 9 6 6 9 9 5 5 6 4 2 1 3 4 7 0 3 3 2 1 7 2 2 2 3 5 4 5 3 3 3 4 5 3 5 7
25 18 11 6 5 5 3 3 6 8 2 4 4 7 10 7 6 6 5 6 4 4 3 4 4 2 2 5 4 6 4 3 5 4 2 3 5 6 3 5 3 2 5 8 7
20 20 9 9 4 4 3 4 10 4 3 1 1 6 7 6 3 5 6 6 2 1 2 4 6 6 3 3 1 5 3 3 5 3 2 5 7 2 0 2 1 3 5 8 10
23 4 5 6 7 3 3 8 4 3 2 1 2 3 4 3 3 5 6 4 3 3 4 4 3 3 1 0 3 5 4 2 1 1 4 4 4 4 4 7 4 4 6 8 10
8 3 7 4 7 3 4 6 5 2 5 3 4 2 6 6 5 5 5 2 4 1 3 3 3 0 3 3 3 3 5 2 1 4 5 5 5 2 7 4 4 8 9 10 11
2 5 3 2 5 4 3 7 5 4 4 4 5 4 2 4 3 3 4 3 2 3 1 4 2 4 3 6 4 5 3 2 2 3 3 4 2 1 4 1 7 9 8 9 11
3 4 2 3 3 1 4 4 1 6 1 1 2 2 4 5 4 3 4 1 3 5 3 2 1 4 1 2 2 2 3 6 4 5 3 4 5 1 1 4 5 9 8 8 9
4 4 1 1 3 5 2 4 5 3 3 3 2 3 2 4 3 3 6 3 5 3 4 5 2 3 3 3 2 4 6 5 3 1 8 4 1 2 4 5 3 8 8 9 10
4 5 2 2 1 4 3 4 3 2 2 2 3 3 4 3 2 4 4 3 4 0 4 3 3 5 6 3 4 4 7 11 10 5 5 12 11 4 8 7 4 5 7 9 8
1 3 1 4 1 5 3 1 3 3 2 1 2 3 4 3 4 4 3 5 2 1 3 2 4 4 10 13 12 14 12 13 16 17 10 1 7 5 7 7 4 5 7 8 10
2 3 2 5 6 4 5 3 6 2 4 3 3 7 3 2 1 5 4 3 3 3 3 0 3 2 8 10 10 13 13 14 18 20 17 19 23 13 2 2 4 4 7 8 10
1 1 2 4 2 4 3 5 4 8 1 4 4 4 5 4 5 6 5 4 3 3 5 3 3 2 4 1 7 8 7 9 7 7 13 15 9 0 1 3 3 5 6 8 10
Wind_Direction
6 1 360 356 351 347 344 339 331 330 333 291 281 279 296 305 311 247 229 98 195 253 151 152 150 149 154 140 149 189 236 240 237 211 173 143 202 158 66 237 203 196 275 82 148
1 359 358 355 351 348 344 338 330 327 324 324 294 283 303 324 299 267 122 162 153 142 210 194 161 163 163 157 169 218 235 245 260 218 240 172 245 194 213 212 218 215 190 150 161
358 354 351 352 349 346 341 341 335 325 318 322 326 293 306 322 284 168 171 184 147 132 146 182 145 190 185 176 180 179 245 227 224 235 262 261 247 233 245 255 241 240 208 179 184
351 348 347 347 344 342 338 335 335 327 318 320 330 307 323 284 302 120 194 196 145 144 168 171 187 188 211 209 176 234 246 237 269 134 221 247 290 249 240 256 298 268 209 179 193
344 342 343 343 340 338 334 329 327 322 317 316 326 348 307 246 267 130 133 162 152 184 183 200 221 211 224 203 194 237 256 244 251 257 257 265 257 265 262 258 251 220 198 203 207
338 335 336 339 335 334 332 325 322 315 308 304 311 287 253 269 86 153 146 169 184 180 157 192 229 217 234 233 226 355 272 274 269 260 251 246 264 239 251 304 238 232 233 224 216
330 332 332 333 330 328 327 322 317 309 300 285 292 243 245 254 44 173 208 144 145 227 179 141 174 215 171 209 212 290 286 275 251 258 232 224 253 232 265 241 252 236 237 225 215
327 328 327 328 328 324 324 320 316 306 284 257 223 194 255 73 335 230 175 140 120 85 85 103 118 121 247 111 200 247 250 272 124 166 145 216 262 171 170 220 236 228 221 217 206
329 327 322 324 325 325 322 317 309 298 239 254 166 229 253 113 216 209 210 175 128 104 84 94 107 249 180 222 223 207 261 236 256 205 186 221 277 207 182 216 245 252 247 216 193
323 323 324 317 325 325 323 313 298 217 110 146 154 221 226 148 133 135 129 158 143 135 139 203 195 217 205 208 237 200 224 231 256 149 224 256 262 272 274 265 266 268 251 219 149
314 316 321 324 322 326 329 314 221 204 216 235 226 263 159 118 157 157 153 150 134 215 220 181 233 217 206 219 282 265 256 269 272 261 287 269 275 277 281 275 269 263 243 160 181
316 314 314 318 315 322 314 283 345 10 289 247 246 248 252 175 195 170 172 199 198 220 177 199 236 271 195 202 221 239 269 269 283 271 258 286 284 295 307 311 313 296 256 151 164
347 347 330 319 313 284 308 290 341 327 256 250 209 206 204 183 214 177 180 182 227 211 213 257 74 120 169 181 214 237 253 274 283 308 251 293 271 209 144 114 70 89 133 171 133
322 310 329 352 295 322 275 133 318 291 274 185 198 176 146 161 177 122 175 209 199 242 205 260 81 236 211 233 218 247 212 247 252 293 285 353 290 213 188 165 190 165 173 180 342
310 306 308 57 299 280 332 267 151 206 270 135 148 113 142 184 129 147 112 186 226 185 210 74 193 206 234 259 193 11 141 236 254 264 303 173 242 148 175 224 197 205 203 301 319
332 319 294 254 185 254 243 205 219 197 244 171 139 167 154 166 141 125 165 137 49 185 230 272 277 257 281 94 169 134 180 192 188 210 237 139 239 178 163 189 194 201 228 324 327
325 312 289 257 262 100 260 200 210 216 81 170 190 176 182 152 146 178 159 171 211 192 204 186 196 143 212 194 166 207 222 231 214 204 298 164 231 296 187 208 225 213 296 321 325
328 319 274 251 211 143 233 234 215 221 244 56 104 144 187 144 141 154 165 183 154 149 167 250 192 186 156 263 244 183 241 285 281 273 14 167 238 122 13 231 188 270 294 314 332
327 315 269 242 200 153 207 229 276 219 156 148 55 185 156 156 164 182 207 173 117 178 219 189 197 122 56 140 289 143 210 17 292 168 261 230 224 196 219 237 234 320 339 333 330
325 300 268 293 161 167 207 238 265 302 239 160 172 269 200 163 191 193 180 95 137 177 262 167 245 192 118 173 81 286 132 162 162 251 249 223 259 251 193 213 275 330 333 330 328
337 312 337 318 195 238 224 214 266 221 282 270 171 152 166 145 196 181 147 124 147 140 84 148 263 134 204 203 173 158 186 141 327 240 282 294 164 112 162 246 310 319 313 322 321
344 284 6 323 209 230 236 229 293 221 134 272 295 109 155 165 169 180 158 75 156 162 141 88 135 253 27 71 344 294 212 184 236 168 237 300 275 141 212 314 302 292 311 317 321
313 278 265 39 214 203 255 255 265 255 194 196 131 73 320 147 165 196 127 116 160 180 166 165 194 269 178 126 185 231 197 201 101 304 217 235 260 174 248 308 267 284 322 329 332
313 306 287 250 257 308 188 253 250 32 148 71 90 89 158 144 87 160 128 167 183 168 170 162 201 255 270 32 99 201 205 202 206 223 235 234 273 218 255 316 314 317 338 330 333
332 302 229 298 265 246 297 240 222 213 46 83 170 232 160 149 140 174 126 134 149 26 68 252 257 209 268 275 257 257 244 215 216 232 238 347 252 275 299 314 300 316 325 339 345
286 298 301 279 299 263 245 216 237 171 198 192 229 173 162 156 152 178 136 157 205 101 190 17 267 289 286 272 260 256 253 247 230 242 252 261 275 291 41 238 274 341 343 345 340
205 335 302 277 275 262 243 245 228 147 196 14 170 133 139 89 84 79 78 84 116 170 192 208 260 261 274 295 307 260 240 229 237 231 237 243 269 77 239 254 336 353 343 337 332